Amarillo, TX

10:54 PM CST on December 14, 2017 (GMT -0600)
Amarillo International

Weather History for KAMA - February, 2013

Change the Weather History Date:

Thursday, February 28, 2013

  Actual Average Record
Temperature  
Mean Temperature 37 °F 44 °F  
Max Temperature 48 °F 58 °F 83 °F (2006)
Min Temperature 26 °F 29 °F 3 °F (1962)
Degree Days  
Heating Degree Days 28 22  
Month to date heating degree days 699 692  
Since 1 July heating degree days 2865 3277  
Cooling Degree Days 0 0  
Month to date cooling degree days 0 0  
Year to date cooling degree days 0 0  
Moisture  
Dew Point 21 °F    
Average Humidity 53    
Maximum Humidity 75    
Minimum Humidity 31    
Precipitation  
Precipitation 0.00 in 0.02 in 1.02 in (1931)
Month to date precipitation 2.53 0.56  
Year to date precipitation 3.29 1.28  
Snow  
Snow 0.00 in 0.10 in 4.60 in (1922)
Month to date snowfall 25.6 2.9  
Since 1 July snowfall 29.6 14.0  
Snow Depth 4.00 in    
Sea Level Pressure  
Sea Level Pressure 30.28 in    
Wind  
Wind Speed 8 mph (West)    
Max Wind Speed 13 mph    
Max Gust Speed 22 mph    
Visibility 10 miles    
Events      
T = Trace of Precipitation, MM = Missing Value Source: NWS Daily Summary

Daily Weather History Graph

Daily Weather History Graph

Search for Another Location

Airport or City:

Trip Planner

Search our weather history database for the weather conditions in past years. The results will help you decide how hot, cold, wet, or windy it might be!

Date:

Astronomy

Feb. 28, 2013 Rise Set
Actual Time 7:17 AM CST 6:41 PM CST
Civil Twilight 6:51 AM CST 7:07 PM CST
Nautical Twilight 6:22 AM CST 7:36 PM CST
Astronomical Twilight 5:53 AM CST 8:06 PM CST
Moon 10:00 PM CST (2/28) 8:36 AM CST (2/28)
Length of Visible Light 12h 15m
Length of Day
11h 24m
Waning Gibbous, 90% of the Moon is Illuminated
Feb 28
Waning Gibbous
Mar 4
Last Quarter
Mar 11
New
Mar 19
First Quarter
Mar 27
Full

Hourly Weather History & Observations

Time (CST) Temp. Windchill Dew Point Humidity Pressure Visibility Wind Dir Wind Speed Gust Speed Precip Events Conditions
12:53 AM 30.2 °F 23.4 °F 19.4 °F 64% 30.26 in 10.0 mi NW 6.9 mph - N/A   Clear
1:53 AM 27.0 °F 21.6 °F 18.0 °F 69% 30.29 in 10.0 mi WNW 4.6 mph - N/A   Clear
2:53 AM 26.1 °F 20.5 °F 18.0 °F 71% 30.28 in 10.0 mi West 4.6 mph - N/A   Clear
3:53 AM 27.0 °F 20.5 °F 19.0 °F 72% 30.27 in 10.0 mi WNW 5.8 mph - N/A   Scattered Clouds
4:53 AM 28.0 °F 20.0 °F 18.0 °F 66% 30.27 in 10.0 mi NW 8.1 mph - N/A   Clear
5:53 AM 27.0 °F 16.7 °F 17.1 °F 66% 30.29 in 10.0 mi NW 11.5 mph - N/A   Clear
6:53 AM 27.0 °F 18.0 °F 17.1 °F 66% 30.31 in 10.0 mi NW 9.2 mph - N/A   Clear
7:53 AM 26.6 °F 16.8 °F 17.6 °F 69% 30.28 in 10.0 mi NW 10.4 mph - N/A   Clear
8:53 AM 30.0 °F 21.1 °F 19.0 °F 64% 30.34 in 10.0 mi NW 10.4 mph - N/A   Clear
9:53 AM 34.0 °F 27.2 °F 21.9 °F 61% 30.35 in 10.0 mi NW 8.1 mph - N/A   Clear
10:53 AM 37.0 °F 31.0 °F 21.9 °F 54% 30.33 in 10.0 mi NW 8.1 mph - N/A   Clear
11:53 AM 39.0 °F 32.3 °F 21.0 °F 49% 30.33 in 10.0 mi NW 10.4 mph - N/A   Clear
12:53 PM 42.1 °F 36.6 °F 21.9 °F 45% 30.32 in 10.0 mi NW 9.2 mph - N/A   Clear
1:53 PM 46.0 °F 40.6 °F 19.9 °F 35% 30.28 in 10.0 mi West 11.5 mph - N/A   Clear
2:53 PM 46.9 °F - 19.0 °F 33% 30.25 in 10.0 mi WNW 9.2 mph - N/A   Clear
3:53 PM 46.9 °F - 18.0 °F 32% 30.24 in 10.0 mi WSW 11.5 mph - N/A   Clear
4:53 PM 46.0 °F 40.6 °F 19.9 °F 35% 30.22 in 10.0 mi WSW 11.5 mph - N/A   Clear
5:53 PM 44.1 °F 40.1 °F 24.1 °F 45% 30.22 in 10.0 mi SW 6.9 mph - N/A   Clear
6:53 PM 37.0 °F 31.0 °F 24.1 °F 59% 30.25 in 10.0 mi SW 8.1 mph - N/A   Clear
7:53 PM 36.0 °F 31.1 °F 25.0 °F 64% 30.25 in 10.0 mi SSW 5.8 mph - N/A   Clear
8:53 PM 35.1 °F 31.0 °F 25.0 °F 67% 30.24 in 10.0 mi SSW 4.6 mph - N/A   Clear
9:53 PM 37.0 °F 33.3 °F 24.1 °F 59% 30.24 in 10.0 mi SW 4.6 mph - N/A   Clear
10:53 PM 34.0 °F 28.8 °F 23.0 °F 64% 30.24 in 10.0 mi WSW 5.8 mph - N/A   Clear
11:53 PM 34.0 °F 29.8 °F 23.0 °F 64% 30.24 in 10.0 mi WSW 4.6 mph - N/A   Clear